TimeEDT,TemperatureF,Dew PointF,Humidity,Sea Level PressureIn,VisibilityMPH,Wind Direction,Wind SpeedMPH,Gust SpeedMPH,PrecipitationIn,Events,Conditions,WindDirDegrees,DateUTC
12:15 AM,53.6,32.0,44,30.13,10.0,SSE,8.1,-,N/A,,Clear,150,2013-04-18 04:15:00
12:35 AM,53.6,32.0,44,30.14,10.0,South,9.2,-,N/A,,Clear,170,2013-04-18 04:35:00
12:55 AM,53.6,32.0,44,30.14,10.0,South,6.9,-,N/A,,Mostly Cloudy,170,2013-04-18 04:55:00
1:15 AM,53.6,32.0,44,30.14,10.0,South,6.9,-,N/A,,Scattered Clouds,170,2013-04-18 05:15:00
1:35 AM,53.6,33.8,47,30.12,10.0,South,8.1,-,N/A,,Partly Cloudy,170,2013-04-18 05:35:00
1:55 AM,53.6,33.8,47,30.10,10.0,SSE,10.4,16.1,N/A,,Clear,160,2013-04-18 05:55:00
2:15 AM,55.4,33.8,44,30.08,10.0,SSE,11.5,17.3,N/A,,Mostly Cloudy,160,2013-04-18 06:15:00
2:35 AM,55.4,33.8,44,30.09,10.0,South,10.4,16.1,N/A,,Overcast,170,2013-04-18 06:35:00
2:55 AM,55.4,33.8,44,30.06,10.0,South,15.0,20.7,N/A,,Mostly Cloudy,170,2013-04-18 06:55:00
3:15 AM,55.4,35.6,47,30.04,10.0,South,11.5,17.3,N/A,,Clear,170,2013-04-18 07:15:00
3:35 AM,55.4,35.6,47,30.04,10.0,South,9.2,-,N/A,,Clear,180,2013-04-18 07:35:00
3:55 AM,55.4,35.6,47,30.03,10.0,South,13.8,19.6,N/A,,Clear,170,2013-04-18 07:55:00
4:15 AM,55.4,37.4,51,30.03,10.0,South,13.8,19.6,N/A,,Clear,180,2013-04-18 08:15:00
4:35 AM,55.4,37.4,51,30.03,10.0,South,11.5,17.3,N/A,,Scattered Clouds,180,2013-04-18 08:35:00
4:55 AM,55.4,39.2,54,30.03,10.0,South,10.4,-,N/A,,Overcast,170,2013-04-18 08:55:00
5:15 AM,55.4,39.2,54,30.03,10.0,South,12.7,17.3,N/A,,Overcast,170,2013-04-18 09:15:00
5:35 AM,55.4,39.2,54,30.02,10.0,South,13.8,-,N/A,,Mostly Cloudy,170,2013-04-18 09:35:00
5:55 AM,55.4,41.0,58,30.02,10.0,South,11.5,-,N/A,,Clear,170,2013-04-18 09:55:00
6:15 AM,55.4,42.8,63,30.01,10.0,South,10.4,-,N/A,,Partly Cloudy,170,2013-04-18 10:15:00
6:35 AM,55.4,44.6,67,30.01,10.0,South,13.8,17.3,N/A,,Partly Cloudy,170,2013-04-18 10:35:00
6:55 AM,55.4,44.6,67,30.01,10.0,South,12.7,19.6,N/A,,Clear,170,2013-04-18 10:55:00
7:15 AM,57.2,46.4,67,30.02,10.0,South,12.7,19.6,N/A,,Clear,180,2013-04-18 11:15:00
7:35 AM,57.2,48.2,72,30.02,10.0,South,15.0,19.6,N/A,,Clear,170,2013-04-18 11:35:00
7:55 AM,57.2,48.2,72,30.02,10.0,South,15.0,21.9,N/A,,Clear,180,2013-04-18 11:55:00
8:15 AM,59.0,50.0,72,30.02,10.0,South,11.5,20.7,N/A,,Clear,170,2013-04-18 12:15:00
8:35 AM,59.0,51.8,77,30.02,10.0,South,15.0,23.0,N/A,,Clear,170,2013-04-18 12:35:00
8:55 AM,60.8,51.8,72,30.01,10.0,SSE,12.7,23.0,N/A,,Clear,160,2013-04-18 12:55:00
9:15 AM,62.6,53.6,72,30.00,10.0,South,15.0,21.9,N/A,,Clear,170,2013-04-18 13:15:00
9:35 AM,62.6,53.6,72,30.00,10.0,South,12.7,21.9,N/A,,Partly Cloudy,180,2013-04-18 13:35:00
9:55 AM,64.4,53.6,68,29.99,10.0,South,12.7,23.0,N/A,,Partly Cloudy,180,2013-04-18 13:55:00
10:15 AM,64.4,53.6,68,29.99,10.0,South,12.7,21.9,N/A,,Scattered Clouds,180,2013-04-18 14:15:00
10:35 AM,66.2,55.4,68,29.97,10.0,South,17.3,25.3,N/A,,Partly Cloudy,190,2013-04-18 14:35:00
10:55 AM,69.8,55.4,60,29.97,10.0,South,17.3,27.6,N/A,,Partly Cloudy,170,2013-04-18 14:55:00
11:15 AM,69.8,55.4,60,29.96,10.0,South,18.4,29.9,N/A,,Clear,190,2013-04-18 15:15:00
11:35 AM,71.6,55.4,57,29.95,10.0,South,17.3,27.6,N/A,,Partly Cloudy,180,2013-04-18 15:35:00
11:55 AM,71.6,55.4,57,29.94,10.0,South,17.3,29.9,N/A,,Mostly Cloudy,180,2013-04-18 15:55:00
12:15 PM,71.6,55.4,57,29.94,10.0,South,18.4,31.1,N/A,,Overcast,180,2013-04-18 16:15:00
12:35 PM,71.6,55.4,57,29.92,10.0,South,15.0,26.5,N/A,,Overcast,190,2013-04-18 16:35:00
12:55 PM,73.4,55.4,53,29.91,10.0,South,18.4,28.8,N/A,,Overcast,190,2013-04-18 16:55:00
1:15 PM,73.4,57.2,57,29.90,10.0,South,15.0,24.2,N/A,,Overcast,180,2013-04-18 17:15:00
1:35 PM,73.4,57.2,57,29.89,10.0,South,19.6,27.6,N/A,,Overcast,180,2013-04-18 17:35:00
1:55 PM,75.2,57.2,53,29.88,10.0,South,16.1,28.8,N/A,,Mostly Cloudy,190,2013-04-18 17:55:00
2:15 PM,77.0,57.2,50,29.87,10.0,South,16.1,24.2,N/A,,Partly Cloudy,190,2013-04-18 18:15:00
2:35 PM,73.4,57.2,57,29.87,10.0,South,17.3,28.8,N/A,,Mostly Cloudy,170,2013-04-18 18:35:00
2:55 PM,73.4,55.4,53,29.87,10.0,South,12.7,18.4,N/A,,Overcast,170,2013-04-18 18:55:00
3:15 PM,75.2,57.2,53,29.86,10.0,South,15.0,21.9,N/A,,Overcast,180,2013-04-18 19:15:00
3:35 PM,75.2,57.2,53,29.85,10.0,South,15.0,25.3,N/A,,Overcast,190,2013-04-18 19:35:00
3:55 PM,73.4,57.2,57,29.84,10.0,SSE,18.4,28.8,N/A,,Overcast,160,2013-04-18 19:55:00
4:35 PM,73.4,57.2,57,29.83,10.0,South,15.0,26.5,N/A,,Overcast,170,2013-04-18 20:35:00
4:55 PM,73.4,57.2,57,29.81,10.0,SSE,17.3,26.5,N/A,,Mostly Cloudy,160,2013-04-18 20:55:00
5:15 PM,73.4,57.2,57,29.81,10.0,South,23.0,31.1,N/A,,Mostly Cloudy,170,2013-04-18 21:15:00
5:35 PM,71.6,57.2,60,29.82,9.0,South,17.3,27.6,N/A,,Overcast,180,2013-04-18 21:35:00
5:55 PM,71.6,57.2,60,29.81,10.0,SSE,17.3,26.5,N/A,,Mostly Cloudy,160,2013-04-18 21:55:00
6:15 PM,71.6,57.2,60,29.80,10.0,SSE,20.7,24.2,N/A,,Scattered Clouds,160,2013-04-18 22:15:00
6:35 PM,71.6,57.2,60,29.80,10.0,SSE,17.3,24.2,N/A,,Partly Cloudy,160,2013-04-18 22:35:00
6:55 PM,69.8,57.2,64,29.80,10.0,SSE,17.3,26.5,N/A,,Clear,160,2013-04-18 22:55:00
7:15 PM,69.8,57.2,64,29.80,10.0,South,20.7,26.5,N/A,,Clear,170,2013-04-18 23:15:00
7:35 PM,68.0,57.2,68,29.79,10.0,SSE,19.6,34.5,N/A,,Partly Cloudy,160,2013-04-18 23:35:00
7:55 PM,66.2,55.4,68,29.79,10.0,SSE,16.1,25.3,N/A,,Clear,160,2013-04-18 23:55:00
8:15 PM,66.2,55.4,68,29.79,10.0,South,19.6,29.9,N/A,,Clear,170,2013-04-19 00:15:00
8:35 PM,66.2,55.4,68,29.79,10.0,SSE,23.0,31.1,N/A,,Clear,160,2013-04-19 00:35:00
8:55 PM,64.4,55.4,73,29.79,10.0,SSE,16.1,27.6,N/A,,Clear,160,2013-04-19 00:55:00
9:15 PM,64.4,55.4,73,29.78,10.0,SSE,15.0,27.6,N/A,,Scattered Clouds,160,2013-04-19 01:15:00
9:35 PM,64.4,55.4,73,29.79,10.0,SSE,19.6,28.8,N/A,,Scattered Clouds,160,2013-04-19 01:35:00
9:55 PM,64.4,55.4,73,29.79,10.0,South,18.4,24.2,N/A,,Mostly Cloudy,180,2013-04-19 01:55:00
10:15 PM,64.4,55.4,73,29.78,10.0,South,19.6,28.8,N/A,,Partly Cloudy,170,2013-04-19 02:15:00
10:35 PM,64.4,55.4,73,29.77,10.0,South,19.6,25.3,N/A,,Clear,170,2013-04-19 02:35:00
10:55 PM,64.4,55.4,73,29.77,10.0,South,17.3,25.3,N/A,,Clear,170,2013-04-19 02:55:00
11:35 PM,64.4,55.4,73,29.76,10.0,South,16.1,24.2,N/A,,Clear,170,2013-04-19 03:35:00
11:55 PM,64.4,53.6,68,29.77,10.0,South,15.0,21.9,N/A,,Clear,170,2013-04-19 03:55:00